Preview of NWS' New Version of Forecast
This preview is not operational and should not be used for support decisions.

Regional Weather Roundup (RWR)

Issued by Green Bay, WI (GRB)

                            
000
ASUS43 KGRB 201311
RWRGRB

NORTH-CENTRAL AND NORTHEAST WISCONSIN REGIONAL WEATHER ROUNDUP
NATIONAL WEATHER SERVICE GREEN BAY WI
800 AM CDT MON MAY 20 2019

WIZ005-009-010>012-018-019-201400-
NORTH CENTRAL WISCONSIN
  
CITY           SKY/WX    TMP DP  RH WIND       PRES   REMARKS
IRONWOOD       FAIR      41  36  82 NW8       30.09R                  
MANITOWISH WTR FAIR      40  40  99 NW9       30.06R                  
ARBOR VITAE    FAIR      42  39  91 N10       30.05R                  
EAGLE RIVER    FAIR      42  36  79 N9G16     30.04R                  
LAND O LAKES   FAIR      41  36  82 N8        30.05R                  
RHINELANDER    NOT AVBL                                               
PHILLIPS       FAIR      40  38  92 N7        30.06R                  
ANTIGO         CLOUDY    41  38  90 N16       30.01R                  
TOMAHAWK       FAIR      41  37  85 N7        30.05R                  
MERRILL        PTSUNNY   43  39  85 N12G17    30.04R                  
$$

WIZ013-073-201400-
NORTHEAST WISCONSIN
  
CITY           SKY/WX    TMP DP  RH WIND       PRES   REMARKS
IRON MOUNTAIN  CLOUDY    43  38  82 NW14G21   29.97R                  
MARINETTE      CLOUDY    43  39  86 N14G21    29.96R                  
OCONTO         CLOUDY    44  40  83 NW12      29.96R                  
$$

WIZ017-030-035>037-045-201400-
CENTRAL WISCONSIN
  
CITY           SKY/WX    TMP DP  RH WIND       PRES   REMARKS
MEDFORD        PTSUNNY   40  36  87 N10G16    30.05R                  
WAUSAU         CLOUDY    43  37  79 N9G21     30.01R                  
MOSINEE        PTSUNNY   43  37  81 N13G18    30.04R                  
MARSHFIELD     CLOUDY    43  37  79 N12       30.05R                  
WISC RAPIDS    CLOUDY    43  36  76 NW10G20   30.06R                  
STEVENS POINT  CLOUDY    41  38  87 NW6       30.04R                  
WAUPACA        CLOUDY    46  40  79 NW9G21    30.02R                  
SHAWANO        PTSUNNY   45  43  91 N7        29.98R                  
CLINTONVILLE   CLOUDY    45  38  77 NW13      30.00R                  
WAUTOMA        NOT AVBL                                               
$$

WIZ038-039-048-051-201400-
FOX VALLEY
  
CITY           SKY/WX    TMP DP  RH WIND       PRES   REMARKS
NWS GREEN BAY  CLOUDY    47  40  76 N14G23    29.97R                  
APPLETON       PTSUNNY   43  39  87 NW12      29.97R                  
OSHKOSH        PTSUNNY   45  39  79 NW16G22   29.99R                  
FOND DU LAC    FAIR      44  39  82 NW20G25   29.99R                  
$$

WIZ022-050-052-201400-
EAST CENTRAL WISCONSIN
  
CITY           SKY/WX    TMP DP  RH WIND       PRES   REMARKS
EPHRAIM        CLOUDY    41  38  90 N16G22    29.92R                  
WASHINGTON ISL CLOUDY    40  38  92 N16       29.92R                  
STURGEON BAY   CLOUDY    43  40  89 N21G28    29.93R                  
MANITOWOC      CLOUDY    44  39  82 NW13G20   29.95R                  
SHEBOYGAN      CLOUDY    45  38  76 NW14G22   29.95R                  
$$

LMZ563-521-522-541>543-201400-
LAKESHORE
  
STATION/POSITION TIME  TEMP    WIND        PRES    VSBY  WAVE
                       AIR SEA DIR/SP/G                  HT/PER
                 (UTC) (F)     (DEG/KT/KT) (MB)    (MI)  (FT/S)
SHEBOYGAN LKSHOR 1300   44     320/ 14/ 17 1014.5R
KEWAUNEE LKSHORE 1248   44     350/ 13/ 19 1012.8R
NORTHPORT PIER   1240   42     320/ 10/ 12 1012.9R
N MID LAKE BUOY  1250   39 37  340/ 14/ 17 1011.4R         2/ 4
SISTER BAY LKSHO 1228   42     330/ 19/ 22   N/A
MENOMINEE LKSHOR 1248   44 54  330/ 16/ 19 1013.5R
$$